Flag for Haiti Weather past 2 weeks in Port-au-Prince, Haiti

Now
73 °F

Passing clouds.


Feels Like: 68 °F
Forecast: 74 / 92 °F
Wind: No wind

Location: Santiago

Current Time: Aug 30, 2014 at 6:46:39 AM

Latest Report: Aug 30, 2014 at 6:00 AM


Visibility: N/A

Pressure: 30.04 "Hg

Humidity: 100%

Dew point: 73 °F

Location of Port-au-PrinceLocation

Historic Weather in Port-au-Prince — Graph

°F

Port-au-Prince temperature yesterday

Maximum temperature yesterday: 86 °F (at 12:00 PM)
Minimum temperature yesterday: 72 °F (at 10:00 PM)
Average temperature yesterday: 76 °F

Past Weeks' High & Low Weather Summary

 TemperatureHumidityPressure
High97 °F (Aug 25, 7:00 PM)100% (Aug 16, 7:00 AM)30.23 "Hg (Aug 16, 7:00 AM)
Low68 °F (Aug 18, 11:00 AM)47% (Aug 19, 4:00 PM)29.71 "Hg (Aug 24, 3:00 PM)
Average81 °F82%29.95 "Hg
* Reported Aug 15 6:00 AM — Aug 30 6:00 AM, Port-au-Prince, Weather by CustomWeather, © 2014

Note: Actual official high and low records may vary slightly from our data, if they occured in-between our weather recording intervals... More about our weather records

Advertising

Port-au-Prince weather history for previous 24 hours

 ConditionsComfort  
Time TempWeatherWind HumidityBarometerVisibility
6:00 AM
Aug 30
73 °FPassing clouds.No wind100%30.04 "HgN/A
5:00 AM73 °FPassing clouds.No wind94%30.01 "HgN/A
4:00 AM73 °FPassing clouds.No wind100%30.04 "HgN/A
3:00 AM73 °FPassing clouds.5 mph100%30.04 "HgN/A
2:00 AM73 °FPassing clouds.6 mph94%30.04 "HgN/A
1:00 AM73 °FPassing clouds.No wind94%30.04 "HgN/A
12:00 AM73 °FPassing clouds.5 mph94%30.04 "HgN/A
11:00 PM
Aug 29
73 °FPartly cloudy.5 mph94%30.04 "HgN/A
10:00 PM72 °FPartly cloudy.5 mph100%30.04 "HgN/A
9:00 PM73 °FPassing clouds.5 mph94%30.04 "HgN/A
8:00 PM73 °FPassing clouds.7 mph100%30.01 "HgN/A
7:00 PM73 °FPartly cloudy.6 mph100%30.04 "HgN/A
6:00 PM73 °FLight rain. Broken clouds.8 mph100%30.01 "Hg5 mi
5:00 PM73 °FLight rain. More clouds than sun.9 mph100%29.98 "Hg5 mi
3:00 PM73 °FHeavy rain. Mostly cloudy.12 mph100%30.01 "Hg2 mi
2:00 PM84 °FScattered showers. Scattered clouds.15 mph79%29.98 "Hg5 mi
1:00 PM79 °FLight rain. Broken clouds.6 mph84%30.01 "Hg5 mi
12:00 PM86 °FScattered clouds.13 mph70%30.01 "HgN/A
11:00 AM82 °FScattered clouds.9 mph79%30.04 "HgN/A
10:00 AM82 °FScattered clouds.10 mph79%30.04 "HgN/A
9:00 AM79 °FScattered clouds.9 mph84%30.04 "HgN/A
8:00 AM77 °FScattered clouds.7 mph89%30.01 "HgN/A
7:00 AM73 °FScattered clouds.5 mph100%30.01 "HgN/A
Weather by CustomWeather, © 2014

See weather overviewHow to use our weather pages